+ View the NASA Portal
+ Center for Near-Earth Object Studies
IMPORTANT:
The SSD Announcement email list is now available. Major changes are coming in the near future, including possible hostname and/or URL changes. To be notified of such changes, subscribe to this email list.
Please visit
this page
for more details.
Don't show this message again
JPL Small-Body Database Browser
Search:
[
help
]
437433 (2013 XF25)
Classification:
Main-belt Asteroid
SPK-ID:
2437433
[
Ephemeris
|
Orbit Diagram
|
Orbital Elements
|
Mission Design
|
Physical Parameters
|
Discovery Circumstances
]
[ show orbit diagram ]
Orbital Elements at Epoch 2458600.5 (2019-Apr-27.0) TDB
Reference:
JPL 11
(heliocentric ecliptic J2000)
Element
Value
Uncertainty (1-sigma)
Units
e
.1355435705350937
8.3376e-08
a
2.4256999083777
4.0927e-08
au
q
2.096911881749537
1.9279e-07
au
i
7.127041865100869
8.7442e-06
deg
node
79.36670085768803
4.6067e-05
deg
peri
348.0492748607534
5.2905e-05
deg
M
163.7954330640724
3.111e-05
deg
t
p
2457972.653724300735
(2017-Aug-07.15372430)
0.00010975
TDB
period
1379.920398411357
3.78
3.4923e-05
9.561e-08
d
yr
n
.2608846136447092
6.6025e-09
deg/d
Q
2.754487935005864
4.6474e-08
au
Orbit Determination Parameters
# obs. used (total)
96
data-arc span
3543 days (9.70 yr)
first obs. used
2009-10-18
last obs. used
2019-07-01
planetary ephem.
DE431
SB-pert. ephem.
SB431-N16
condition code
0
norm. resid. RMS
.60279
source
ORB
producer
Otto Matic
solution date
2019-Sep-24 07:37:36
Additional Information
Earth MOID
= 1.11136 au
Jupiter MOID
= 2.52105 au
T_jup
= 3.488
[ show covariance matrix ]
[
Ephemeris
|
Orbit Diagram
|
Orbital Elements
|
Mission Design
|
Physical Parameters
|
Discovery Circumstances
]
Physical Parameter Table
Parameter
Symbol
Value
Units
Sigma
Reference
Notes
absolute magnitude
H
17.3
n/a
MPO437697
437433 (2013 XF25)
Discovered 2009-Oct-18 by CSS at Catalina
Reference:
Last Updated:
2015-06-04
[
Ephemeris
|
Orbit Diagram
|
Orbital Elements
|
Mission Design
|
Physical Parameters
|
Discovery Circumstances
]
2019-Dec-11 23:43 UT
(server date/time)
Site Manager:
Ryan S. Park
Webmaster
:
Alan B. Chamberlin